sim
Sign-in with your pilot id or email,
or register
Callsign
Passwort

Schedule Details

Flight Number: OEO4162
Departure: Hannover Langenhagen Airport (EDDV) at 05:25
Arrival: Thessaloniki International Airport (LGTS) at 08:05

Weather Information
Getting current METAR information for EDDV 252150Z 09006KT CAVOK 18/06 Q1007 NOSIG
Getting current METAR information for LGTS 252150Z 00000KT CAVOK 15/12 Q1020 NOSIG

Schedule Frequency

Route Map